EW6602 Weather Reports


Display with metric or nautical units.
time (UTC)temp
F
wind
direction
speed
MPH
gust
MPH
rain 1hr
in
rain 24hr
in
rain mn
in
humidity
%
barometer
mb
20260507211321 57 317 2.0 9.0 0.01 0.14 0.08 79 1009.9
20260507210848 57 309 3.0 9.0 0.01 0.14 0.08 79 1009.9
20260507210314 57 277 4.0 9.0 0.00 0.13 0.07 78 1009.9
20260507210108 57 288 1.0 7.0 0.00 0.13 0.07 78 1009.6
20260507205820 58 226 3.0 7.0 0.00 0.13 0.07 78 1009.9
20260507205316 57 252 4.0 7.0 0.00 0.13 0.07 79 1009.8
20260507204829 57 276 3.0 6.0 0.00 0.13 0.07 80 1010.0
20260507204502 57 295 3.0 6.0 0.00 0.13 0.07 80 1009.7
20260507204332 57 185 3.0 7.0 0.00 0.13 0.07 80 1009.9
20260507203829 57 204 3.0 7.0 0.00 0.13 0.07 80 1010.0
20260507203313 57 183 2.0 6.0 0.00 0.13 0.07 80 1010.0
20260507203022 56 225 2.0 7.0 0.00 0.13 0.07 80 1009.7
20260507202823 57 300 4.0 7.0 0.00 0.13 0.07 80 1010.0
20260507202328 57 130 4.0 8.0 0.00 0.13 0.07 80 1010.2
20260507201825 57 209 3.0 8.0 0.00 0.13 0.07 80 1010.2
20260507201550 56 171 3.0 7.0 0.00 0.13 0.07 80 1010.0
20260507201339 57 193 2.0 7.0 0.00 0.13 0.07 80 1010.3
20260507200819 57 187 2.0 8.0 0.00 0.13 0.07 80 1010.3
20260507200340 57 249 3.0 9.0 0.00 0.13 0.07 80 1010.3
20260507200118 56 183 3.0 9.0 0.00 0.13 0.07 80 1010.0
20260507195829 57 312 3.0 6.0 0.00 0.13 0.07 80 1010.2
20260507195325 56 187 2.0 4.0 0.00 0.13 0.07 80 1010.2
20260507194829 56 254 1.0 5.0 0.00 0.13 0.07 80 1010.4
20260507194509 56 202 1.0 5.0 0.00 0.13 0.07 79 1010.3
20260507194329 56 195 2.0 5.0 0.00 0.13 0.07 79 1010.6
20260507193835 56 279 2.0 6.0 0.00 0.13 0.07 80 1010.7
20260507193322 56 215 1.0 6.0 0.00 0.13 0.07 80 1010.6
20260507193033 56 138 1.0 6.0 0.00 0.13 0.07 80 1010.4
20260507192839 56 218 1.0 5.0 0.00 0.13 0.07 81 1010.7
20260507192326 56 196 1.0 6.0 0.00 0.13 0.07 80 1010.9
20260507191823 56 225 1.0 6.0 0.00 0.13 0.07 80 1010.9
20260507191556 55 193 3.0 6.0 0.00 0.13 0.07 79 1010.5
20260507191315 56 156 1.0 7.0 0.00 0.13 0.07 80 1010.7
20260507190848 56 161 3.0 7.0 0.00 0.13 0.07 79 1010.8
20260507190323 57 143 1.0 6.0 0.00 0.13 0.07 79 1010.9
20260507190051 56 150 1.0 6.0 0.00 0.13 0.07 80 1010.7
20260507185831 57 148 2.0 6.0 0.00 0.13 0.07 79 1011.1
20260507185315 57 222 1.0 5.0 0.00 0.14 0.07 80 1011.1
20260507184852 56 193 3.0 5.0 0.00 0.14 0.07 80 1011.1
20260507184541 55 187 0.0 4.0 0.00 0.14 0.07 81 1010.8
20260507184329 55 189 2.0 4.0 0.00 0.14 0.07 82 1011.1
20260507183816 55 128 1.0 4.0 0.01 0.14 0.07 81 1011.2
20260507183332 55 121 2.0 4.0 0.01 0.14 0.07 82 1011.1
20260507183003 54 142 1.0 5.0 0.01 0.14 0.07 82 1010.9
20260507182819 55 143 2.0 5.0 0.01 0.14 0.07 82 1011.2
20260507182336 55 164 2.0 4.0 0.01 0.14 0.07 83 1011.2
20260507181823 55 153 3.0 4.0 0.01 0.14 0.07 83 1011.3
20260507181534 54 145 0.0 5.0 0.01 0.14 0.07 83 1011.0
20260507181340 55 145 1.0 6.0 0.01 0.14 0.07 83 1011.3
20260507180832 55 91 0.0 7.0 0.01 0.14 0.07 82 1011.0
20260507180325 55 108 1.0 7.0 0.01 0.14 0.07 82 1011.6
20260507180051 54 107 2.0 7.0 0.01 0.14 0.07 83 1011.3
20260507175835 55 93 1.0 3.0 0.01 0.14 0.07 83 1011.7
20260507175342 55 93 1.0 3.0 0.01 0.14 0.07 83 1011.4
20260507174818 55 93 0.0 1.0 0.01 0.14 0.07 82 1011.3
20260507174547 54 93 0.0 3.0 0.01 0.14 0.07 82 1011.1
20260507174334 55 93 0.0 3.0 0.01 0.14 0.07 82 1011.3
20260507173821 55 93 1.0 3.0 0.00 0.13 0.06 81 1011.8
20260507173338 55 88 1.0 4.0 0.00 0.13 0.06 80 1011.6
20260507173008 55 88 1.0 4.0 0.00 0.13 0.06 81 1011.4
20260507172826 56 88 2.0 4.0 0.00 0.13 0.06 81 1011.7
20260507172313 56 88 0.0 3.0 0.00 0.13 0.06 81 1011.8
20260507171851 56 88 2.0 3.0 0.00 0.13 0.06 81 1011.8
20260507171517 55 87 0.0 4.0 0.00 0.13 0.06 82 1011.4
20260507171325 56 87 0.0 4.0 0.00 0.13 0.06 82 1011.8
20260507170842 56 87 1.0 4.0 0.00 0.13 0.06 82 1011.9
20260507170358 56 87 2.0 4.0 0.00 0.13 0.06 81 1012.0
20260507170113 56 86 0.0 3.0 0.00 0.13 0.06 81 1011.8
20260507165819 56 86 1.0 3.0 0.00 0.13 0.06 81 1012.1
20260507165315 56 87 2.0 6.0 0.00 0.13 0.06 82 1012.3
20260507164852 56 87 2.0 6.0 0.00 0.13 0.06 81 1012.2
20260507164607 55 85 2.0 6.0 0.00 0.13 0.06 82 1011.9
20260507164318 56 73 2.0 4.0 0.00 0.13 0.06 82 1012.1
20260507163834 56 71 1.0 5.0 0.01 0.13 0.06 82 1012.2
20260507163322 55 69 2.0 5.0 0.01 0.13 0.06 82 1012.3
20260507163025 54 69 1.0 5.0 0.01 0.13 0.06 82 1012.0
20260507162819 55 70 2.0 5.0 0.01 0.13 0.06 82 1012.4
20260507162351 55 60 2.0 4.0 0.01 0.13 0.06 83 1012.4
20260507161818 54 59 2.0 4.0 0.01 0.13 0.06 83 1012.5
20260507161539 54 52 1.0 3.0 0.01 0.13 0.06 83 1012.3
20260507161334 54 44 2.0 3.0 0.01 0.13 0.06 83 1012.5
20260507160850 54 44 1.0 3.0 0.01 0.13 0.06 83 1012.7
20260507160316 54 44 0.0 4.0 0.01 0.13 0.06 82 1013.0
20260507160005 53 44 1.0 4.0 0.01 0.13 0.06 82 1012.6
20260507155826 54 44 1.0 4.0 0.01 0.13 0.06 82 1013.0
20260507155343 54 43 1.0 3.0 0.01 0.13 0.06 83 1013.1
20260507154838 54 42 0.0 1.0 0.01 0.13 0.06 82 1012.9
20260507154527 53 42 0.0 4.0 0.01 0.13 0.06 83 1012.6
20260507154326 54 42 0.0 4.0 0.01 0.13 0.06 83 1013.0
20260507153813 54 42 1.0 4.0 0.00 0.12 0.05 83 1012.9
20260507153330 54 38 1.0 7.0 0.00 0.12 0.05 83 1013.3
20260507153046 53 38 1.0 7.0 0.00 0.12 0.05 83 1012.6
20260507152818 54 49 2.0 7.0 0.00 0.12 0.05 83 1012.7
20260507152315 54 77 1.0 9.0 0.00 0.12 0.05 83 1012.9
20260507151818 54 87 2.0 9.0 0.00 0.12 0.05 83 1012.7
20260507151506 54 64 1.0 5.0 0.00 0.12 0.05 83 1012.4
20260507151334 54 56 1.0 4.0 0.00 0.12 0.05 83 1012.6
20260507150827 54 54 1.0 4.0 0.00 0.12 0.05 83 1012.5
20260507150313 54 44 0.0 0.0 0.00 0.12 0.05 83 1012.9
20260507150116 54 44 0.0 0.0 0.00 0.12 0.05 83 1012.5
20260507145822 54 44 0.0 1.0 0.00 0.12 0.05 83 1012.9
20260507145318 54 44 0.0 4.0 0.00 0.12 0.05 83 1012.7
20260507144842 54 44 1.0 8.0 0.00 0.12 0.05 83 1012.9
20260507144514 53 50 2.0 8.0 0.00 0.12 0.05 83 1012.5
20260507144329 54 72 3.0 8.0 0.00 0.12 0.05 83 1012.9
20260507143842 54 75 2.0 8.0 0.00 0.12 0.05 83 1013.1
20260507143330 54 42 1.0 8.0 0.00 0.12 0.05 83 1013.0
20260507143041 53 85 0.0 8.0 0.00 0.12 0.05 83 1012.7
20260507142846 54 85 1.0 8.0 0.00 0.12 0.05 83 1013.2
20260507142344 54 71 1.0 7.0 0.00 0.12 0.05 83 1013.2
20260507141823 54 46 3.0 7.0 0.00 0.12 0.05 83 1013.2
20260507141544 53 36 0.0 10.0 0.00 0.12 0.05 83 1012.7
20260507141339 54 30 1.0 10.0 0.00 0.12 0.05 83 1013.1
20260507140847 54 75 4.0 10.0 0.00 0.12 0.05 83 1013.1
20260507140323 54 96 1.0 8.0 0.00 0.12 0.05 83 1013.3
20260507140052 53 72 3.0 8.0 0.00 0.12 0.05 83 1013.0
20260507135852 54 48 1.0 8.0 0.00 0.12 0.05 83 1013.4
20260507135319 54 60 2.0 7.0 0.00 0.13 0.05 83 1013.3
20260507134832 54 58 1.0 9.0 0.00 0.13 0.05 82 1013.2
20260507134538 53 77 4.0 9.0 0.00 0.13 0.05 83 1012.9
20260507134316 54 107 2.0 8.0 0.00 0.13 0.05 82 1013.3
20260507133833 54 100 1.0 8.0 0.00 0.13 0.05 82 1013.5
20260507133329 54 63 0.0 5.0 0.00 0.13 0.05 82 1013.5
20260507133110 53 63 1.0 5.0 0.00 0.13 0.05 82 1013.1
20260507132854 54 54 1.0 5.0 0.00 0.13 0.05 82 1013.3
20260507132320 54 54 3.0 6.0 0.00 0.13 0.05 82 1013.3
20260507131833 54 75 3.0 6.0 0.00 0.13 0.05 82 1013.1
20260507131615 53 69 1.0 7.0 0.00 0.13 0.05 82 1012.8
20260507131320 54 67 3.0 7.0 0.00 0.13 0.05 82 1013.0
20260507130837 54 5 2.0 7.0 0.00 0.13 0.05 81 1013.1
20260507130333 54 61 1.0 7.0 0.00 0.13 0.05 82 1013.1
20260507130113 53 43 0.0 7.0 0.00 0.13 0.05 82 1012.7
20260507125833 54 40 2.0 7.0 0.00 0.13 0.05 81 1013.0
20260507125329 54 48 1.0 8.0 0.00 0.17 0.05 81 1013.1
20260507124817 54 46 2.0 8.0 0.00 0.17 0.05 81 1013.0
20260507124526 53 358 2.0 7.0 0.00 0.17 0.05 81 1012.6
20260507124313 54 58 0.0 8.0 0.00 0.17 0.05 81 1012.9
20260507123821 54 54 3.0 8.0 0.00 0.17 0.05 81 1013.0
20260507123316 54 64 1.0 6.0 0.00 0.17 0.05 81 1013.2
20260507123050 53 69 2.0 6.0 0.00 0.17 0.05 81 1012.7
20260507122823 54 47 0.0 4.0 0.00 0.17 0.05 80 1013.1
20260507122319 54 47 1.0 4.0 0.00 0.17 0.05 80 1013.1
20260507121826 54 208 0.0 6.0 0.00 0.17 0.05 80 1012.9
20260507121515 53 208 1.0 6.0 0.00 0.17 0.05 79 1012.5
20260507121343 54 39 1.0 6.0 0.00 0.17 0.05 79 1012.8
20260507120838 54 67 0.0 4.0 0.00 0.17 0.05 79 1012.6
20260507120337 54 67 1.0 6.0 0.00 0.17 0.05 78 1012.6
20260507120112 53 67 2.0 6.0 0.00 0.17 0.05 78 1012.4
20260507115847 54 59 1.0 2.0 0.00 0.17 0.05 77 1012.7
20260507115313 54 54 0.0 3.0 0.00 0.17 0.05 77 1012.8
20260507114830 53 48 1.0 3.0 0.00 0.17 0.05 77 1012.8
20260507114607 53 49 1.0 3.0 0.00 0.17 0.05 76 1012.4
20260507114317 53 49 0.0 3.0 0.00 0.17 0.05 76 1012.7
20260507113850 53 49 1.0 3.0 0.00 0.17 0.05 76 1012.6
20260507113345 53 49 0.0 3.0 0.00 0.17 0.05 76 1012.5
20260507113153 53 49 0.0 3.0 0.00 0.17 0.05 76 1012.1
20260507112825 53 48 0.0 2.0 0.00 0.17 0.05 76 1012.5
20260507112330 53 48 0.0 3.0 0.00 0.17 0.05 75 1012.5
20260507111845 53 47 1.0 3.0 0.00 0.17 0.05 75 1012.4
20260507111540 53 46 0.0 5.0 0.00 0.17 0.05 75 1012.0
20260507111331 53 46 0.0 5.0 0.00 0.17 0.05 75 1012.3
20260507110830 53 68 0.0 2.0 0.00 0.17 0.05 75 1012.2
20260507110325 53 68 0.0 2.0 0.00 0.17 0.05 75 1012.2
20260507110022 53 68 0.0 3.0 0.00 0.17 0.05 75 1011.7
20260507105820 53 68 0.0 3.0 0.00 0.17 0.05 75 1011.9
20260507105356 53 68 1.0 3.0 0.00 0.17 0.05 75 1011.8
20260507104841 53 68 1.0 3.0 0.00 0.17 0.05 75 1011.9
20260507104505 53 68 0.0 3.0 0.00 0.17 0.05 75 1011.5
20260507104337 53 68 0.0 3.0 0.00 0.17 0.05 75 1012.0
20260507103832 53 68 0.0 0.0 0.00 0.17 0.05 75 1012.0
20260507103319 54 68 0.0 0.0 0.00 0.17 0.05 75 1012.0
20260507103017 53 68 0.0 0.0 0.00 0.17 0.05 75 1011.7
20260507102824 54 68 0.0 0.0 0.00 0.17 0.05 75 1012.2
20260507102336 54 68 0.0 1.0 0.00 0.17 0.05 75 1012.1
20260507101824 54 68 0.0 3.0 0.00 0.17 0.05 75 1012.2
20260507101531 53 68 0.0 3.0 0.00 0.17 0.05 75 1011.8
20260507101340 54 68 0.0 3.0 0.00 0.17 0.05 75 1012.1
20260507100828 54 68 0.0 0.0 0.00 0.17 0.05 75 1012.1
20260507100324 54 68 0.0 0.0 0.00 0.17 0.05 75 1012.2
20260507100100 53 68 0.0 0.0 0.00 0.17 0.05 75 1011.8
20260507095823 54 68 0.0 0.0 0.00 0.17 0.05 75 1012.1
20260507095327 54 68 0.0 0.0 0.00 0.17 0.05 75 1012.0
20260507094820 54 68 0.0 5.0 0.00 0.17 0.05 75 1011.9
20260507094556 53 67 0.0 5.0 0.00 0.17 0.05 75 1011.4
20260507094327 54 67 1.0 5.0 0.00 0.17 0.05 75 1011.6
20260507093823 54 85 1.0 6.0 0.00 0.17 0.05 75 1011.6
20260507093331 54 96 2.0 6.0 0.00 0.17 0.05 75 1011.3
20260507093013 54 27 0.0 0.0 0.00 0.17 0.05 74 1011.0
20260507092817 54 27 0.0 0.0 0.00 0.17 0.05 75 1011.6
20260507092335 54 27 0.0 0.0 0.00 0.17 0.05 75 1012.0
20260507091817 54 27 0.0 1.0 0.00 0.17 0.05 74 1011.8
20260507091524 54 27 0.0 3.0 0.00 0.17 0.05 74 1011.5
20260507091354 54 27 0.0 3.0 0.00 0.17 0.05 74 1011.9
20260507090829 54 27 1.0 4.0 0.00 0.17 0.05 74 1011.8
20260507090338 54 24 2.0 4.0 0.00 0.17 0.05 75 1011.9
20260507090110 54 102 1.0 4.0 0.00 0.17 0.05 75 1011.4
20260507085825 54 102 0.0 4.0 0.00 0.17 0.05 74 1011.8
20260507085322 55 89 0.0 2.0 0.00 0.17 0.05 74 1011.6
20260507084855 55 89 1.0 2.0 0.00 0.17 0.05 74 1011.6
20260507084603 54 88 0.0 7.0 0.00 0.17 0.05 74 1011.1
20260507084321 55 88 0.0 7.0 0.00 0.17 0.05 74 1011.3
20260507083837 55 89 2.0 7.0 0.00 0.17 0.05 74 1011.2
20260507083325 55 83 1.0 4.0 0.00 0.17 0.05 74 1011.3
20260507083029 54 50 0.0 2.0 0.00 0.17 0.05 74 1010.9
20260507082821 55 50 0.0 2.0 0.00 0.17 0.05 74 1011.3
20260507082329 55 46 0.0 2.0 0.00 0.17 0.05 74 1011.4
20260507081825 55 46 0.0 3.0 0.00 0.17 0.05 74 1011.4
20260507081600 55 64 0.0 4.0 0.00 0.17 0.05 74 1010.9
20260507081333 55 64 1.0 5.0 0.00 0.17 0.05 74 1011.4
20260507080830 55 55 1.0 5.0 0.00 0.17 0.05 74 1011.4
20260507080337 55 62 0.0 6.0 0.00 0.17 0.05 74 1011.3
20260507080117 55 62 2.0 6.0 0.00 0.17 0.05 74 1010.9
20260507075825 55 70 0.0 8.0 0.00 0.17 0.05 74 1011.2
20260507075322 55 71 1.0 9.0 0.00 0.17 0.05 74 1011.3
20260507074830 56 93 2.0 11.0 0.00 0.17 0.05 74 1011.2
20260507074518 55 42 3.0 11.0 0.00 0.17 0.05 74 1010.7
20260507074327 56 50 4.0 11.0 0.00 0.17 0.05 74 1011.3
20260507073814 56 44 1.0 5.0 0.00 0.17 0.05 74 1011.2
20260507073331 56 76 2.0 5.0 0.00 0.17 0.05 73 1011.0
20260507073049 55 74 0.0 5.0 0.00 0.17 0.05 73 1010.5
20260507072819 56 77 1.0 5.0 0.00 0.17 0.05 73 1010.8
20260507072315 56 110 1.0 4.0 0.00 0.17 0.05 73 1010.6
20260507071823 56 67 0.0 5.0 0.00 0.17 0.05 73 1010.6
20260507071541 56 67 1.0 5.0 0.00 0.17 0.05 73 1010.2
20260507071319 56 71 0.0 5.0 0.00 0.17 0.05 73 1010.6
20260507070826 56 71 1.0 5.0 0.00 0.17 0.05 73 1010.8
20260507070324 56 67 1.0 8.0 0.00 0.17 0.05 73 1010.4
20260507070026 56 65 2.0 8.0 0.00 0.17 0.05 73 1010.0
20260507065833 57 107 0.0 4.0 0.00 0.17 0.05 73 1010.5
20260507065320 57 88 1.0 5.0 0.00 0.17 0.05 73 1010.4
20260507064814 57 72 2.0 5.0 0.00 0.17 0.05 73 1010.4
20260507064553 57 54 1.0 5.0 0.00 0.17 0.05 73 1010.0
20260507064346 57 46 0.0 6.0 0.00 0.17 0.05 73 1010.6
20260507063833 57 62 2.0 9.0 0.00 0.17 0.05 73 1010.5
20260507063329 57 109 2.0 9.0 0.00 0.17 0.05 72 1010.5
20260507063104 57 155 2.0 8.0 0.00 0.17 0.05 72 1010.2
20260507062817 58 79 2.0 8.0 0.00 0.17 0.05 72 1010.6
20260507062333 58 64 5.0 8.0 0.00 0.17 0.05 72 1010.6
20260507061820 59 56 1.0 8.0 0.00 0.17 0.05 72 1010.8
20260507061529 58 15 0.0 13.0 0.00 0.17 0.05 72 1010.3
20260507061337 59 133 2.0 13.0 0.00 0.17 0.05 72 1010.8
20260507060825 59 113 4.0 13.0 0.00 0.17 0.05 72 1010.7
20260507060321 60 103 1.0 10.0 0.00 0.17 0.05 71 1010.6
20260507060100 60 79 2.0 10.0 0.00 0.17 0.05 71 1010.1
20260507055838 60 98 5.0 10.0 0.00 0.17 0.05 71 1010.5
20260507055325 61 344 3.0 8.0 0.00 0.17 0.05 71 1010.7
20260507054821 61 61 2.0 9.0 0.00 0.17 0.05 71 1011.0
20260507054603 61 64 0.0 9.0 0.00 0.17 0.05 71 1010.5
20260507054329 61 64 4.0 9.0 0.00 0.17 0.05 71 1010.8
20260507053825 61 6 2.0 4.0 0.01 0.17 0.05 71 1010.5
20260507053333 62 47 2.0 4.0 0.01 0.17 0.05 71 1010.3
20260507053032 62 54 1.0 5.0 0.01 0.17 0.05 71 1009.8
20260507052829 62 46 1.0 5.0 0.02 0.17 0.05 71 1010.2
20260507052318 62 358 3.0 5.0 0.03 0.17 0.05 71 1010.1
20260507051833 62 335 2.0 6.0 0.04 0.17 0.05 71 1010.1
20260507051601 62 348 3.0 6.0 0.04 0.17 0.05 71 1009.5
20260507051320 62 344 4.0 7.0 0.04 0.17 0.05 71 1009.7
20260507050837 62 106 1.0 7.0 0.04 0.17 0.05 71 1009.1
20260507050353 63 120 1.0 7.0 0.04 0.17 0.05 71 1008.9
20260507050046 62 110 1.0 7.0 0.05 0.17 0.05 71 1008.3
20260507045841 63 96 2.0 7.0 0.05 0.17 0.05 71 1008.8
20260507045332 63 98 0.0 3.0 0.05 0.17 0.05 71 1009.4
20260507044820 63 97 1.0 3.0 0.05 0.17 0.05 71 1010.0
20260507044535 62 75 0.0 1.0 0.05 0.17 0.05 71 1009.8
20260507044337 63 75 0.0 2.0 0.05 0.17 0.05 71 1010.3
20260507043824 63 75 0.0 3.0 0.04 0.16 0.04 71 1010.5
20260507043341 63 75 1.0 4.0 0.04 0.16 0.04 71 1010.4
20260507043003 62 127 0.0 4.0 0.04 0.15 0.03 71 1009.9
20260507042828 62 127 0.0 4.0 0.05 0.15 0.03 71 1010.1
20260507042325 62 338 1.0 5.0 0.07 0.14 0.02 71 1010.3
20260507041832 62 338 2.0 5.0 0.07 0.13 0.01 72 1010.3
20260507041531 62 328 0.0 0.0 0.07 0.13 0.01 72 1009.8
20260507041328 62 328 0.0 0.0 0.07 0.13 0.01 72 1010.2
20260507040816 62 328 0.0 0.0 0.07 0.13 0.01 72 1010.1
20260507040332 62 328 0.0 2.0 0.07 0.13 0.01 72 1010.1
20260507040118 62 328 0.0 3.0 0.06 0.12 0.00 72 1009.5
20260507035814 63 328 1.0 3.0 0.06 0.12 0.00 72 1009.9
20260507035351 63 322 2.0 3.0 0.06 0.12 0.12 72 1010.2
20260507034827 63 50 0.0 1.0 0.06 0.12 0.12 72 1010.0
20260507034553 62 50 0.0 1.0 0.06 0.12 0.12 73 1009.9
20260507034316 63 50 0.0 3.0 0.06 0.12 0.12 73 1010.3
20260507033832 63 50 1.0 3.0 0.06 0.12 0.12 73 1010.3
20260507033349 63 50 1.0 3.0 0.05 0.11 0.11 74 1010.5
20260507033103 62 323 1.0 3.0 0.05 0.11 0.11 74 1010.1
20260507032814 63 322 1.0 3.0 0.03 0.09 0.09 74 1010.7
20260507032331 63 48 2.0 3.0 0.01 0.07 0.07 74 1010.6
20260507031818 63 54 0.0 2.0 0.00 0.06 0.06 74 1010.4
20260507031530 63 54 0.0 2.0 0.00 0.06 0.06 74 1009.9
20260507031335 63 54 0.0 3.0 0.00 0.06 0.06 74 1010.3
20260507030817 63 54 1.0 3.0 0.00 0.06 0.06 75 1010.0
20260507030331 63 54 1.0 3.0 0.00 0.06 0.06 75 1010.0
20260507030053 62 36 0.0 3.0 0.00 0.06 0.06 76 1009.3
20260507025841 63 35 1.0 3.0 0.00 0.06 0.06 76 1009.8
20260507025329 63 324 0.0 0.0 0.00 0.06 0.06 76 1010.1
20260507024825 63 324 0.0 3.0 0.00 0.06 0.06 77 1009.8
20260507024501 63 324 0.0 3.0 0.00 0.06 0.06 77 1009.4
20260507024329 63 324 0.0 3.0 0.00 0.06 0.06 77 1010.0
20260507023844 64 196 1.0 3.0 0.00 0.06 0.06 77 1009.9
20260507023340 64 196 0.0 3.0 0.00 0.06 0.06 77 1009.8
20260507023019 63 196 0.0 3.0 0.00 0.06 0.06 77 1009.4
20260507022847 64 196 0.0 3.0 0.00 0.06 0.06 77 1009.8
20260507022323 64 196 0.0 0.0 0.00 0.06 0.06 77 1009.7
20260507021829 64 196 0.0 0.0 0.00 0.06 0.06 78 1009.8
20260507021518 63 196 0.0 0.0 0.00 0.06 0.06 78 1009.4
20260507021346 64 196 0.0 0.0 0.00 0.06 0.06 78 1009.9
20260507020822 64 196 0.0 0.0 0.00 0.06 0.06 78 1009.6
20260507020355 64 196 0.0 0.0 0.00 0.06 0.06 79 1009.5
20260507020108 64 196 0.0 0.0 0.00 0.06 0.06 79 1009.0
20260507015814 64 196 0.0 0.0 0.00 0.06 0.06 79 1009.5
20260507015330 64 196 0.0 1.0 0.00 0.06 0.06 80 1009.4
20260507014817 65 196 0.0 1.0 0.00 0.06 0.06 80 1009.5
20260507014514 65 196 0.0 1.0 0.00 0.06 0.06 80 1008.6
20260507014323 65 196 0.0 1.0 0.00 0.06 0.06 80 1009.0
20260507013839 65 196 0.0 1.0 0.00 0.06 0.06 80 1009.0
20260507013326 66 196 0.0 5.0 0.00 0.06 0.06 80 1009.4
20260507013032 65 196 0.0 5.0 0.00 0.06 0.06 80 1008.9
20260507012834 66 196 1.0 5.0 0.00 0.06 0.06 80 1009.4
20260507012344 66 196 1.0 3.0 0.00 0.06 0.06 80 1009.5
20260507011827 66 196 0.0 3.0 0.00 0.06 0.06 80 1009.5
20260507011544 66 196 1.0 3.0 0.00 0.06 0.06 80 1009.1
20260507011331 66 196 0.0 2.0 0.00 0.06 0.06 80 1009.7
20260507010815 66 196 0.0 0.0 0.00 0.06 0.06 80 1009.7
20260507010348 66 196 0.0 0.0 0.00 0.06 0.06 80 1009.7
20260507010037 66 196 0.0 0.0 0.00 0.06 0.06 80 1009.2
20260507005836 67 196 0.0 2.0 0.00 0.06 0.06 80 1009.8
20260507005331 67 196 0.0 2.0 0.00 0.06 0.06 80 1009.8
20260507004831 67 196 0.0 2.0 0.00 0.06 0.06 81 1009.6
20260507004529 66 213 0.0 3.0 0.00 0.06 0.06 80 1009.2
20260507004324 67 213 0.0 3.0 0.00 0.06 0.06 80 1009.8
20260507003839 67 213 1.0 3.0 0.00 0.06 0.06 80 1009.7
20260507003352 67 142 0.0 2.0 0.00 0.06 0.06 81 1009.4
20260507003002 67 139 0.0 7.0 0.00 0.06 0.06 81 1009.0
20260507002818 67 150 0.0 7.0 0.00 0.06 0.06 81 1009.7
20260507002332 68 189 1.0 7.0 0.00 0.06 0.06 80 1009.6
20260507001818 68 195 1.0 4.0 0.00 0.06 0.06 80 1009.5
20260507001528 67 195 0.0 4.0 0.00 0.06 0.06 81 1008.9
20260507001334 68 189 1.0 3.0 0.00 0.06 0.06 81 1009.5
20260507000835 68 189 0.0 3.0 0.00 0.06 0.06 80 1009.2
20260507000321 68 189 0.0 4.0 0.00 0.06 0.06 80 1009.2
20260507000017 68 189 0.0 5.0 0.00 0.06 0.06 80 1008.6
20260506235840 69 189 1.0 5.0 0.00 0.06 0.06 80 1009.0
20260506235327 69 193 2.0 5.0 0.00 0.06 0.06 80 1008.9
20260506234844 69 213 1.0 5.0 0.00 0.06 0.06 80 1008.9
20260506234559 68 174 1.0 5.0 0.00 0.06 0.06 80 1008.4
20260506234332 69 158 2.0 7.0 0.00 0.06 0.06 80 1009.0
20260506233820 69 175 2.0 9.0 0.00 0.06 0.06 80 1009.1
20260506233316 69 179 3.0 13.0 0.00 0.06 0.06 80 1009.2
20260506233006 69 162 4.0 13.0 0.00 0.06 0.06 80 1008.8
20260506232832 69 183 4.0 13.0 0.00 0.06 0.06 80 1009.4
20260506232350 70 169 1.0 3.0 0.00 0.06 0.06 80 1009.4
20260506231839 70 159 0.0 7.0 0.00 0.06 0.06 79 1009.3
20260506231511 69 159 1.0 8.0 0.00 0.06 0.06 79 1008.7
20260506231346 70 100 1.0 8.0 0.00 0.06 0.06 79 1009.1
20260506230821 70 169 4.0 8.0 0.00 0.06 0.06 79 1009.1
20260506230326 70 179 4.0 8.0 0.00 0.06 0.06 79 1008.9
20260506230115 70 189 3.0 8.0 0.00 0.06 0.06 79 1008.2
20260506225824 70 160 3.0 6.0 0.00 0.06 0.06 79 1008.8
20260506225318 70 183 1.0 8.0 0.00 0.06 0.06 79 1008.9
20260506224842 70 189 2.0 8.0 0.00 0.06 0.06 79 1008.7
20260506224602 70 190 3.0 8.0 0.00 0.06 0.06 79 1008.0
20260506224320 70 198 4.0 11.0 0.00 0.06 0.06 79 1008.6
20260506223828 70 224 3.0 11.0 0.00 0.06 0.06 79 1008.9
20260506223343 70 198 2.0 7.0 0.00 0.06 0.06 79 1008.8
20260506223110 70 130 2.0 7.0 0.00 0.06 0.06 79 1008.4
20260506222820 70 164 4.0 7.0 0.00 0.06 0.06 79 1009.0
20260506222315 70 182 4.0 10.0 0.00 0.06 0.06 79 1008.9
20260506221852 70 231 4.0 10.0 0.00 0.06 0.06 79 1008.8
20260506221600 70 153 5.0 11.0 0.00 0.06 0.06 78 1008.3
20260506221317 70 200 4.0 8.0 0.00 0.06 0.06 78 1008.9
20260506220830 71 143 5.0 8.0 0.00 0.06 0.06 78 1008.7
20260506220317 71 188 4.0 10.0 0.00 0.06 0.06 78 1008.7
20260506220001 70 251 3.0 10.0 0.00 0.06 0.06 78 1008.2
20260506215825 71 199 3.0 9.0 0.00 0.06 0.06 78 1008.8
20260506215314 71 181 2.0 9.0 0.00 0.06 0.06 77 1008.8
20260506214900 72 124 3.0 8.0 0.00 0.06 0.06 77 1008.8
20260506214512 71 182 1.0 9.0 0.00 0.06 0.06 77 1008.3
20260506214326 72 247 2.0 9.0 0.00 0.06 0.06 77 1008.8
20260506213841 72 205 3.0 9.0 0.00 0.06 0.06 77 1008.7
20260506213328 72 196 2.0 6.0 0.00 0.06 0.06 76 1008.6
20260506213041 72 310 1.0 7.0 0.00 0.06 0.06 78 1007.9
20260506212841 72 243 1.0 9.0 0.00 0.06 0.06 77 1008.4
20260506212327 71 168 3.0 9.0 0.00 0.06 0.06 77 1008.5
20260506211825 71 225 2.0 10.0 0.00 0.06 0.06 77 1008.6